Time,TemperatureF,DewpointF,PressureIn,WindDirection,WindDirectionDegrees,WindSpeedMPH,WindSpeedGustMPH,Humidity,HourlyPrecipIn,Conditions,Clouds,dailyrainin,SoftwareType,DateUTC
2013-05-19 00:01:00,56.3,47.0,30.23,WSW,249,2.0,5.0,71,0.00,,,0.00,WeatherCatV1.10B1784,2013-05-19 04:01:00,
2013-05-19 00:06:00,56.3,47.4,30.23,SW,231,1.0,1.0,72,0.00,,,0.00,WeatherCatV1.10B1784,2013-05-19 04:06:00,
2013-05-19 00:11:00,56.3,47.0,30.23,WSW,239,3.0,11.0,71,0.00,,,0.00,WeatherCatV1.10B1784,2013-05-19 04:11:00,
2013-05-19 00:16:00,56.4,47.1,30.23,SW,227,7.0,7.0,71,0.00,,,0.00,WeatherCatV1.10B1784,2013-05-19 04:16:00,
2013-05-19 00:21:00,56.3,47.0,30.23,SW,228,0.0,4.0,71,0.00,,,0.00,WeatherCatV1.10B1784,2013-05-19 04:21:00,
2013-05-19 00:26:00,56.1,46.8,30.23,WSW,239,0.0,6.0,71,0.00,,,0.00,WeatherCatV1.10B1784,2013-05-19 04:26:00,
2013-05-19 00:31:00,56.2,46.9,30.23,West,281,3.0,10.0,71,0.00,,,0.00,WeatherCatV1.10B1784,2013-05-19 04:31:00,
2013-05-19 00:36:00,56.3,46.6,30.23,NW,321,3.0,10.0,70,0.00,,,0.00,WeatherCatV1.10B1784,2013-05-19 04:36:00,
2013-05-19 00:41:00,56.2,46.5,30.24,WSW,257,12.0,12.0,70,0.00,,,0.00,WeatherCatV1.10B1784,2013-05-19 04:41:00,
2013-05-19 00:46:00,56.2,46.5,30.24,SW,229,2.0,13.0,70,0.00,,,0.00,WeatherCatV1.10B1784,2013-05-19 04:46:00,
2013-05-19 00:51:00,56.0,46.4,30.23,SSW,202,4.0,8.0,70,0.00,,,0.00,WeatherCatV1.10B1784,2013-05-19 04:51:00,
2013-05-19 00:56:00,55.9,46.3,30.23,WSW,251,2.0,6.0,70,0.00,,,0.00,WeatherCatV1.10B1784,2013-05-19 04:56:00,
2013-05-19 01:01:00,55.8,46.2,30.23,SW,236,6.0,12.0,70,0.00,,,0.00,WeatherCatV1.10B1784,2013-05-19 05:01:00,
2013-05-19 01:06:00,55.7,46.1,30.23,WSW,237,1.0,9.0,70,0.00,,,0.00,WeatherCatV1.10B1784,2013-05-19 05:06:00,
2013-05-19 01:11:00,55.5,46.2,30.23,SSW,202,6.0,6.0,71,0.00,,,0.00,WeatherCatV1.10B1784,2013-05-19 05:11:00,
2013-05-19 01:16:00,55.4,46.2,30.23,SSW,200,12.0,12.0,71,0.00,,,0.00,WeatherCatV1.10B1784,2013-05-19 05:16:00,
2013-05-19 01:21:00,55.4,46.2,30.23,WSW,241,2.0,8.0,71,0.00,,,0.00,WeatherCatV1.10B1784,2013-05-19 05:21:00,
2013-05-19 01:26:00,55.2,46.0,30.23,WSW,240,5.0,13.0,71,0.00,,,0.00,WeatherCatV1.10B1784,2013-05-19 05:26:00,
2013-05-19 01:31:00,55.1,46.2,30.23,West,274,4.0,4.0,72,0.00,,,0.00,WeatherCatV1.10B1784,2013-05-19 05:31:00,
2013-05-19 01:36:00,55.1,46.2,30.23,SW,231,6.0,9.0,72,0.00,,,0.00,WeatherCatV1.10B1784,2013-05-19 05:36:00,
2013-05-19 01:39:00,55.2,46.7,30.23,WSW,240,7.0,11.0,73,0.00,,,0.00,WeatherCatV1.10B1784,2013-05-19 05:39:00,
2013-05-19 01:44:00,55.2,46.7,30.23,WSW,239,3.0,8.0,73,0.00,,,0.00,WeatherCatV1.10B1784,2013-05-19 05:44:00,
2013-05-19 01:49:00,55.1,47.0,30.23,West,262,4.0,4.0,74,0.00,,,0.00,WeatherCatV1.10B1784,2013-05-19 05:49:00,
2013-05-19 01:54:00,55.1,47.3,30.23,SW,233,3.0,13.0,75,0.00,,,0.00,WeatherCatV1.10B1784,2013-05-19 05:54:00,
2013-05-19 01:59:00,55.0,47.2,30.23,WSW,251,6.0,11.0,75,0.00,,,0.00,WeatherCatV1.10B1784,2013-05-19 05:59:00,
2013-05-19 02:04:00,55.0,47.6,30.23,WSW,257,5.0,11.0,76,0.00,,,0.00,WeatherCatV1.10B1784,2013-05-19 06:04:00,
2013-05-19 02:09:00,55.1,47.7,30.23,WSW,244,7.0,8.0,76,0.00,,,0.00,WeatherCatV1.10B1784,2013-05-19 06:09:00,
2013-05-19 02:14:00,55.0,47.6,30.23,SW,235,3.0,6.0,76,0.00,,,0.00,WeatherCatV1.10B1784,2013-05-19 06:14:00,
2013-05-19 02:19:00,54.9,47.8,30.23,West,274,5.0,10.0,77,0.00,,,0.00,WeatherCatV1.10B1784,2013-05-19 06:19:00,
2013-05-19 02:24:00,54.9,47.8,30.23,SW,223,2.0,8.0,77,0.00,,,0.00,WeatherCatV1.10B1784,2013-05-19 06:24:00,
2013-05-19 02:29:00,54.9,47.8,30.23,WSW,238,0.0,8.0,77,0.00,,,0.00,WeatherCatV1.10B1784,2013-05-19 06:29:00,
2013-05-19 02:34:00,54.8,47.7,30.23,SW,225,8.0,13.0,77,0.00,,,0.00,WeatherCatV1.10B1784,2013-05-19 06:34:00,
2013-05-19 02:39:00,54.8,47.7,30.23,SW,231,2.0,14.0,77,0.00,,,0.00,WeatherCatV1.10B1784,2013-05-19 06:39:00,
2013-05-19 02:44:00,54.7,48.0,30.23,WSW,248,1.0,7.0,78,0.00,,,0.00,WeatherCatV1.10B1784,2013-05-19 06:44:00,
2013-05-19 02:49:00,54.7,48.0,30.23,SW,236,5.0,15.0,78,0.00,,,0.00,WeatherCatV1.10B1784,2013-05-19 06:49:00,
2013-05-19 02:53:00,54.7,48.0,30.23,SW,230,4.0,13.0,78,0.00,,,0.00,WeatherCatV1.10B1784,2013-05-19 06:53:00,
2013-05-19 02:58:00,54.6,47.9,30.23,SW,221,8.0,11.0,78,0.00,,,0.00,WeatherCatV1.10B1784,2013-05-19 06:58:00,
2013-05-19 03:03:00,54.6,47.5,30.23,WSW,249,5.0,6.0,77,0.00,,,0.00,WeatherCatV1.10B1784,2013-05-19 07:03:00,
2013-05-19 03:08:00,54.6,47.5,30.23,SW,227,1.0,6.0,77,0.00,,,0.00,WeatherCatV1.10B1784,2013-05-19 07:08:00,
2013-05-19 03:13:00,54.6,47.5,30.23,WSW,248,3.0,9.0,77,0.00,,,0.00,WeatherCatV1.10B1784,2013-05-19 07:13:00,
2013-05-19 03:18:00,54.6,47.2,30.23,East,79,0.0,1.0,76,0.00,,,0.00,WeatherCatV1.10B1784,2013-05-19 07:18:00,
2013-05-19 03:23:00,54.6,47.2,30.23,WSW,248,0.0,4.0,76,0.00,,,0.00,WeatherCatV1.10B1784,2013-05-19 07:23:00,
2013-05-19 03:28:00,54.5,46.7,30.24,WSW,249,0.0,6.0,75,0.00,,,0.00,WeatherCatV1.10B1784,2013-05-19 07:28:00,
2013-05-19 03:33:00,54.6,46.5,30.24,WSW,249,3.0,3.0,74,0.00,,,0.00,WeatherCatV1.10B1784,2013-05-19 07:33:00,
2013-05-19 03:38:00,54.5,46.4,30.24,East,100,0.0,1.0,74,0.00,,,0.00,WeatherCatV1.10B1784,2013-05-19 07:38:00,
2013-05-19 03:43:00,54.3,46.5,30.24,East,100,0.0,2.0,75,0.00,,,0.00,WeatherCatV1.10B1784,2013-05-19 07:43:00,
2013-05-19 03:48:00,54.0,47.0,30.24,East,101,0.0,0.0,77,0.00,,,0.00,WeatherCatV1.10B1784,2013-05-19 07:48:00,
2013-05-19 03:53:00,53.6,47.2,30.24,ESE,109,2.0,3.0,79,0.00,,,0.00,WeatherCatV1.10B1784,2013-05-19 07:53:00,
2013-05-19 03:58:00,53.2,46.9,30.24,ESE,109,2.0,4.0,79,0.00,,,0.00,WeatherCatV1.10B1784,2013-05-19 07:58:00,
2013-05-19 04:03:00,52.9,46.9,30.24,ESE,109,0.0,1.0,80,0.00,,,0.00,WeatherCatV1.10B1784,2013-05-19 08:03:00,
2013-05-19 04:08:00,52.6,46.6,30.24,ESE,109,0.0,0.0,80,0.00,,,0.00,WeatherCatV1.10B1784,2013-05-19 08:08:00,
2013-05-19 04:13:00,52.4,46.7,30.24,ESE,109,0.0,0.0,81,0.00,,,0.00,WeatherCatV1.10B1784,2013-05-19 08:13:00,
2013-05-19 04:18:00,52.0,46.7,30.24,ESE,109,0.0,0.0,82,0.00,,,0.00,WeatherCatV1.10B1784,2013-05-19 08:18:00,
2013-05-19 04:23:00,51.7,46.4,30.24,ESE,109,0.0,0.0,82,0.00,,,0.00,WeatherCatV1.10B1784,2013-05-19 08:23:00,
2013-05-19 04:28:00,51.7,46.4,30.25,ESE,109,0.0,2.0,82,0.00,,,0.00,WeatherCatV1.10B1784,2013-05-19 08:28:00,
2013-05-19 04:33:00,51.6,46.3,30.24,ESE,109,0.0,1.0,82,0.00,,,0.00,WeatherCatV1.10B1784,2013-05-19 08:33:00,
2013-05-19 04:38:00,51.7,46.4,30.24,ESE,110,0.0,0.0,82,0.00,,,0.00,WeatherCatV1.10B1784,2013-05-19 08:38:00,
2013-05-19 04:43:00,51.7,46.4,30.24,ESE,110,0.0,0.0,82,0.00,,,0.00,WeatherCatV1.10B1784,2013-05-19 08:43:00,
2013-05-19 04:48:00,51.7,46.4,30.25,ESE,110,0.0,0.0,82,0.00,,,0.00,WeatherCatV1.10B1784,2013-05-19 08:48:00,
2013-05-19 04:53:00,51.7,46.4,30.25,ESE,110,0.0,0.0,82,0.00,,,0.00,WeatherCatV1.10B1784,2013-05-19 08:53:00,
2013-05-19 04:58:00,51.6,46.3,30.25,ESE,110,0.0,0.0,82,0.00,,,0.00,WeatherCatV1.10B1784,2013-05-19 08:58:00,
2013-05-19 05:03:00,51.3,46.6,30.25,ESE,110,0.0,0.0,84,0.00,,,0.00,WeatherCatV1.10B1784,2013-05-19 09:03:00,
2013-05-19 05:08:00,51.1,46.4,30.25,ESE,110,0.0,0.0,84,0.00,,,0.00,WeatherCatV1.10B1784,2013-05-19 09:08:00,
2013-05-19 05:13:00,51.0,46.3,30.25,ESE,110,0.0,0.0,84,0.00,,,0.00,WeatherCatV1.10B1784,2013-05-19 09:13:00,
2013-05-19 05:18:00,50.6,45.9,30.26,ESE,110,0.0,0.0,84,0.00,,,0.00,WeatherCatV1.10B1784,2013-05-19 09:18:00,
2013-05-19 05:23:00,50.4,46.1,30.25,ESE,110,0.0,0.0,85,0.00,,,0.00,WeatherCatV1.10B1784,2013-05-19 09:23:00,
2013-05-19 05:28:00,50.1,45.8,30.26,ESE,110,0.0,0.0,85,0.00,,,0.00,WeatherCatV1.10B1784,2013-05-19 09:28:00,
2013-05-19 05:33:00,49.9,45.9,30.26,ESE,110,0.0,0.0,86,0.00,,,0.00,WeatherCatV1.10B1784,2013-05-19 09:33:00,
2013-05-19 05:38:00,49.7,45.7,30.26,ESE,110,0.0,1.0,86,0.00,,,0.00,WeatherCatV1.10B1784,2013-05-19 09:38:00,
2013-05-19 05:43:00,49.6,45.9,30.26,ESE,110,0.0,0.0,87,0.00,,,0.00,WeatherCatV1.10B1784,2013-05-19 09:43:00,
2013-05-19 05:48:00,49.4,45.7,30.26,ESE,110,0.0,0.0,87,0.00,,,0.00,WeatherCatV1.10B1784,2013-05-19 09:48:00,
2013-05-19 05:53:00,49.2,45.5,30.27,ESE,110,0.0,0.0,87,0.00,,,0.00,WeatherCatV1.10B1784,2013-05-19 09:53:00,
2013-05-19 05:58:00,49.0,45.6,30.27,ESE,110,0.0,0.0,88,0.00,,,0.00,WeatherCatV1.10B1784,2013-05-19 09:58:00,
2013-05-19 06:03:00,48.8,45.4,30.27,ESE,110,0.0,0.0,88,0.00,,,0.00,WeatherCatV1.10B1784,2013-05-19 10:03:00,
2013-05-19 06:08:00,48.7,45.3,30.27,ESE,110,0.0,0.0,88,0.00,,,0.00,WeatherCatV1.10B1784,2013-05-19 10:08:00,
2013-05-19 06:13:00,48.7,45.6,30.27,ESE,110,0.0,0.0,89,0.00,,,0.00,WeatherCatV1.10B1784,2013-05-19 10:13:00,
2013-05-19 06:18:00,48.6,45.5,30.28,ESE,110,0.0,0.0,89,0.00,,,0.00,WeatherCatV1.10B1784,2013-05-19 10:18:00,
2013-05-19 06:23:00,48.6,45.5,30.28,ESE,110,0.0,0.0,89,0.00,,,0.00,WeatherCatV1.10B1784,2013-05-19 10:23:00,
2013-05-19 06:28:00,48.6,45.5,30.28,ESE,110,0.0,0.0,89,0.00,,,0.00,WeatherCatV1.10B1784,2013-05-19 10:28:00,
2013-05-19 06:33:00,48.5,45.4,30.28,ESE,110,0.0,0.0,89,0.00,,,0.00,WeatherCatV1.10B1784,2013-05-19 10:33:00,
2013-05-19 06:38:00,48.6,45.8,30.28,ESE,110,0.0,0.0,90,0.00,,,0.00,WeatherCatV1.10B1784,2013-05-19 10:38:00,
2013-05-19 06:43:00,48.7,45.9,30.28,ESE,110,0.0,0.0,90,0.00,,,0.00,WeatherCatV1.10B1784,2013-05-19 10:43:00,
2013-05-19 06:48:00,49.0,46.2,30.28,ESE,110,0.0,0.0,90,0.00,,,0.00,WeatherCatV1.10B1784,2013-05-19 10:48:00,
2013-05-19 06:53:00,49.2,46.4,30.29,ESE,110,0.0,0.0,90,0.00,,,0.00,WeatherCatV1.10B1784,2013-05-19 10:53:00,
2013-05-19 06:58:00,49.6,46.5,30.29,ESE,110,0.0,0.0,89,0.00,,,0.00,WeatherCatV1.10B1784,2013-05-19 10:58:00,
2013-05-19 07:03:00,49.9,46.8,30.28,ESE,110,0.0,0.0,89,0.00,,,0.00,WeatherCatV1.10B1784,2013-05-19 11:03:00,
2013-05-19 07:08:00,50.2,46.8,30.29,ESE,110,0.0,0.0,88,0.00,,,0.00,WeatherCatV1.10B1784,2013-05-19 11:08:00,
2013-05-19 07:13:00,50.5,47.1,30.29,ESE,110,0.0,0.0,88,0.00,,,0.00,WeatherCatV1.10B1784,2013-05-19 11:13:00,
2013-05-19 07:18:00,50.7,47.3,30.29,ESE,110,0.0,0.0,88,0.00,,,0.00,WeatherCatV1.10B1784,2013-05-19 11:18:00,
2013-05-19 07:23:00,50.9,47.5,30.29,ESE,110,0.0,0.0,88,0.00,,,0.00,WeatherCatV1.10B1784,2013-05-19 11:23:00,
2013-05-19 07:28:00,51.2,47.5,30.29,ESE,110,0.0,0.0,87,0.00,,,0.00,WeatherCatV1.10B1784,2013-05-19 11:28:00,
2013-05-19 07:33:00,51.5,47.8,30.29,ESE,110,1.0,1.0,87,0.00,,,0.00,WeatherCatV1.10B1784,2013-05-19 11:33:00,
2013-05-19 07:38:00,52.0,47.9,30.29,ESE,110,0.0,1.0,86,0.00,,,0.00,WeatherCatV1.10B1784,2013-05-19 11:38:00,
2013-05-19 07:43:00,52.6,48.2,30.29,ESE,110,0.0,2.0,85,0.00,,,0.00,WeatherCatV1.10B1784,2013-05-19 11:43:00,
2013-05-19 07:48:00,53.2,48.5,30.28,ESE,110,0.0,1.0,84,0.00,,,0.00,WeatherCatV1.10B1784,2013-05-19 11:48:00,
2013-05-19 07:53:00,53.7,49.0,30.28,ESE,110,0.0,3.0,84,0.00,,,0.00,WeatherCatV1.10B1784,2013-05-19 11:53:00,
2013-05-19 07:58:00,54.5,49.1,30.28,ESE,110,0.0,1.0,82,0.00,,,0.00,WeatherCatV1.10B1784,2013-05-19 11:58:00,
2013-05-19 08:03:00,55.1,49.4,30.29,ESE,110,0.0,2.0,81,0.00,,,0.00,WeatherCatV1.10B1784,2013-05-19 12:03:00,
2013-05-19 08:08:00,55.4,49.3,30.29,ESE,110,1.0,1.0,80,0.00,,,0.00,WeatherCatV1.10B1784,2013-05-19 12:08:00,
2013-05-19 08:13:00,55.5,49.1,30.29,ESE,110,0.0,0.0,79,0.00,,,0.00,WeatherCatV1.10B1784,2013-05-19 12:13:00,
2013-05-19 08:18:00,55.9,49.5,30.29,ESE,110,1.0,1.0,79,0.00,,,0.00,WeatherCatV1.10B1784,2013-05-19 12:18:00,
2013-05-19 08:23:00,56.3,49.5,30.29,ESE,110,0.0,2.0,78,0.00,,,0.00,WeatherCatV1.10B1784,2013-05-19 12:23:00,
2013-05-19 08:28:00,56.4,49.6,30.29,ESE,110,0.0,2.0,78,0.00,,,0.00,WeatherCatV1.10B1784,2013-05-19 12:28:00,
2013-05-19 08:33:00,56.7,49.9,30.29,ESE,110,0.0,0.0,78,0.00,,,0.00,WeatherCatV1.10B1784,2013-05-19 12:33:00,
2013-05-19 08:38:00,57.2,49.7,30.29,ESE,123,4.0,6.0,76,0.00,,,0.00,WeatherCatV1.10B1784,2013-05-19 12:38:00,
2013-05-19 08:43:00,57.7,50.2,30.29,ESE,123,0.0,3.0,76,0.00,,,0.00,WeatherCatV1.10B1784,2013-05-19 12:43:00,
2013-05-19 08:48:00,57.9,49.7,30.29,ESE,123,0.0,2.0,74,0.00,,,0.00,WeatherCatV1.10B1784,2013-05-19 12:48:00,
2013-05-19 08:53:00,57.3,49.4,30.29,NE,55,2.0,4.0,75,0.00,,,0.00,WeatherCatV1.10B1784,2013-05-19 12:53:00,
2013-05-19 08:58:00,57.0,49.5,30.29,NE,54,0.0,1.0,76,0.00,,,0.00,WeatherCatV1.10B1784,2013-05-19 12:58:00,
2013-05-19 09:03:00,57.3,50.2,30.29,ENE,61,0.0,2.0,77,0.00,,,0.00,WeatherCatV1.10B1784,2013-05-19 13:03:00,
2013-05-19 09:08:00,58.2,50.3,30.29,ENE,66,0.0,0.0,75,0.00,,,0.00,WeatherCatV1.10B1784,2013-05-19 13:08:00,
2013-05-19 09:13:00,59.0,51.8,30.30,ENE,66,0.0,0.0,77,0.00,,,0.00,WeatherCatV1.10B1784,2013-05-19 13:13:00,
2013-05-19 09:18:00,59.5,50.8,30.30,ENE,66,0.0,2.0,73,0.00,,,0.00,WeatherCatV1.10B1784,2013-05-19 13:18:00,
2013-05-19 09:23:00,60.3,51.6,30.29,ESE,121,6.0,6.0,73,0.00,,,0.00,WeatherCatV1.10B1784,2013-05-19 13:23:00,
2013-05-19 09:28:00,60.8,51.3,30.29,ESE,115,0.0,1.0,71,0.00,,,0.00,WeatherCatV1.10B1784,2013-05-19 13:28:00,
2013-05-19 09:33:00,61.5,52.4,30.29,ESE,115,0.0,3.0,72,0.00,,,0.00,WeatherCatV1.10B1784,2013-05-19 13:33:00,
2013-05-19 09:38:00,62.1,52.2,30.29,ESE,109,2.0,2.0,70,0.00,,,0.00,WeatherCatV1.10B1784,2013-05-19 13:38:00,
2013-05-19 09:43:00,62.5,52.2,30.29,ESE,119,1.0,2.0,69,0.00,,,0.00,WeatherCatV1.10B1784,2013-05-19 13:43:00,
2013-05-19 09:48:00,62.6,52.7,30.29,ESE,119,0.0,2.0,70,0.00,,,0.00,WeatherCatV1.10B1784,2013-05-19 13:48:00,
2013-05-19 09:53:00,63.6,53.2,30.28,ESE,121,0.0,1.0,69,0.00,,,0.00,WeatherCatV1.10B1784,2013-05-19 13:53:00,
2013-05-19 09:58:00,64.4,54.0,30.28,ESE,121,1.0,5.0,69,0.00,,,0.00,WeatherCatV1.10B1784,2013-05-19 13:58:00,
2013-05-19 10:03:00,64.8,53.6,30.28,ESE,119,0.0,2.0,67,0.00,,,0.00,WeatherCatV1.10B1784,2013-05-19 14:03:00,
2013-05-19 10:08:00,65.1,53.9,30.28,ESE,119,0.0,4.0,67,0.00,,,0.00,WeatherCatV1.10B1784,2013-05-19 14:08:00,
2013-05-19 10:13:00,65.3,53.6,30.28,ESE,119,4.0,4.0,66,0.00,,,0.00,WeatherCatV1.10B1784,2013-05-19 14:13:00,
2013-05-19 10:18:00,65.6,54.3,30.28,ESE,119,0.0,0.0,67,0.00,,,0.00,WeatherCatV1.10B1784,2013-05-19 14:18:00,
2013-05-19 10:23:00,65.9,53.8,30.28,East,98,2.0,2.0,65,0.00,,,0.00,WeatherCatV1.10B1784,2013-05-19 14:23:00,
2013-05-19 10:28:00,65.7,53.6,30.28,SE,141,1.0,2.0,65,0.00,,,0.00,WeatherCatV1.10B1784,2013-05-19 14:28:00,
2013-05-19 10:33:00,65.7,54.0,30.28,SE,141,2.0,4.0,66,0.00,,,0.00,WeatherCatV1.10B1784,2013-05-19 14:33:00,
2013-05-19 10:38:00,66.5,53.9,30.28,SE,131,1.0,2.0,64,0.00,,,0.00,WeatherCatV1.10B1784,2013-05-19 14:38:00,
2013-05-19 10:43:00,67.6,53.7,30.28,SSE,152,1.0,7.0,61,0.00,,,0.00,WeatherCatV1.10B1784,2013-05-19 14:43:00,
2013-05-19 10:48:00,65.8,51.5,30.28,WSW,243,0.0,7.0,60,0.00,,,0.00,WeatherCatV1.10B1784,2013-05-19 14:48:00,
2013-05-19 10:53:00,65.2,52.7,30.28,WSW,244,0.0,4.0,64,0.00,,,0.00,WeatherCatV1.10B1784,2013-05-19 14:53:00,
2013-05-19 10:58:00,65.3,51.5,30.28,SW,223,0.0,5.0,61,0.00,,,0.00,WeatherCatV1.10B1784,2013-05-19 14:58:00,
2013-05-19 11:03:00,65.9,52.1,30.28,SE,140,3.0,10.0,61,0.00,,,0.00,WeatherCatV1.10B1784,2013-05-19 15:03:00,
2013-05-19 11:08:00,67.1,52.7,30.27,WSW,257,1.0,10.0,60,0.00,,,0.00,WeatherCatV1.10B1784,2013-05-19 15:08:00,
2013-05-19 11:13:00,68.4,53.5,30.27,SE,138,3.0,8.0,59,0.00,,,0.00,WeatherCatV1.10B1784,2013-05-19 15:13:00,
2013-05-19 11:18:00,69.4,53.5,30.27,SSE,150,1.0,7.0,57,0.00,,,0.00,WeatherCatV1.10B1784,2013-05-19 15:18:00,
2013-05-19 11:23:00,69.7,52.8,30.27,SE,129,1.0,7.0,55,0.00,,,0.00,WeatherCatV1.10B1784,2013-05-19 15:23:00,
2013-05-19 11:28:00,70.0,53.6,30.27,SSE,168,3.0,6.0,56,0.00,,,0.00,WeatherCatV1.10B1784,2013-05-19 15:28:00,
2013-05-19 11:33:00,70.2,51.7,30.27,West,267,0.0,4.0,52,0.00,,,0.00,WeatherCatV1.10B1784,2013-05-19 15:33:00,
2013-05-19 11:38:00,70.0,53.6,30.27,ESE,123,2.0,13.0,56,0.00,,,0.00,WeatherCatV1.10B1784,2013-05-19 15:38:00,
2013-05-19 11:43:00,70.8,52.8,30.27,SE,142,1.0,8.0,53,0.00,,,0.00,WeatherCatV1.10B1784,2013-05-19 15:43:00,
2013-05-19 11:48:00,71.1,51.0,30.26,SW,233,0.0,7.0,49,0.00,,,0.00,WeatherCatV1.10B1784,2013-05-19 15:48:00,
2013-05-19 11:53:00,70.4,51.9,30.26,West,279,7.0,11.0,52,0.00,,,0.00,WeatherCatV1.10B1784,2013-05-19 15:53:00,
2013-05-19 11:58:00,70.1,51.6,30.26,South,170,0.0,3.0,52,0.00,,,0.00,WeatherCatV1.10B1784,2013-05-19 15:58:00,
2013-05-19 12:03:00,69.3,50.9,30.26,WSW,242,6.0,7.0,52,0.00,,,0.00,WeatherCatV1.10B1784,2013-05-19 16:03:00,
2013-05-19 12:08:00,69.0,51.1,30.26,WSW,244,0.0,4.0,53,0.00,,,0.00,WeatherCatV1.10B1784,2013-05-19 16:08:00,
2013-05-19 12:13:00,68.8,51.5,30.26,South,180,2.0,3.0,54,0.00,,,0.00,WeatherCatV1.10B1784,2013-05-19 16:13:00,
2013-05-19 12:18:00,69.7,51.3,30.26,SE,146,4.0,7.0,52,0.00,,,0.00,WeatherCatV1.10B1784,2013-05-19 16:18:00,
2013-05-19 12:23:00,70.3,51.8,30.26,SE,124,0.0,1.0,52,0.00,,,0.00,WeatherCatV1.10B1784,2013-05-19 16:23:00,
2013-05-19 12:28:00,70.2,52.3,30.25,WNW,291,2.0,4.0,53,0.00,,,0.00,WeatherCatV1.10B1784,2013-05-19 16:28:00,
2013-05-19 12:33:00,70.6,52.1,30.25,SSE,154,1.0,6.0,52,0.00,,,0.00,WeatherCatV1.10B1784,2013-05-19 16:33:00,
2013-05-19 12:38:00,70.7,52.2,30.25,SSW,198,0.0,11.0,52,0.00,,,0.00,WeatherCatV1.10B1784,2013-05-19 16:38:00,
2013-05-19 12:43:00,69.8,51.9,30.26,SE,124,3.0,9.0,53,0.00,,,0.00,WeatherCatV1.10B1784,2013-05-19 16:43:00,
2013-05-19 12:48:00,69.3,51.9,30.26,WSW,252,1.0,4.0,54,0.00,,,0.00,WeatherCatV1.10B1784,2013-05-19 16:48:00,
2013-05-19 12:53:00,68.7,52.4,30.25,SW,220,4.0,4.0,56,0.00,,,0.00,WeatherCatV1.10B1784,2013-05-19 16:53:00,
2013-05-19 12:58:00,67.1,50.9,30.25,WSW,249,4.0,7.0,56,0.00,,,0.00,WeatherCatV1.10B1784,2013-05-19 16:58:00,
2013-05-19 13:03:00,66.6,51.4,30.25,WSW,243,3.0,5.0,58,0.00,,,0.00,WeatherCatV1.10B1784,2013-05-19 17:03:00,
2013-05-19 13:08:00,66.7,51.9,30.25,SE,125,7.0,7.0,59,0.00,,,0.00,WeatherCatV1.10B1784,2013-05-19 17:08:00,
2013-05-19 13:13:00,67.1,51.3,30.24,SE,140,2.0,4.0,57,0.00,,,0.00,WeatherCatV1.10B1784,2013-05-19 17:13:00,
2013-05-19 13:18:00,67.4,51.6,30.24,WSW,240,0.0,7.0,57,0.00,,,0.00,WeatherCatV1.10B1784,2013-05-19 17:18:00,
2013-05-19 13:23:00,67.2,51.9,30.24,SSW,199,1.0,5.0,58,0.00,,,0.00,WeatherCatV1.10B1784,2013-05-19 17:23:00,
2013-05-19 13:28:00,67.0,51.7,30.24,SW,233,0.0,0.0,58,0.00,,,0.00,WeatherCatV1.10B1784,2013-05-19 17:28:00,
2013-05-19 13:33:00,66.7,52.4,30.23,SE,129,3.0,4.0,60,0.00,,,0.00,WeatherCatV1.10B1784,2013-05-19 17:33:00,
2013-05-19 13:38:00,66.6,51.8,30.24,WSW,250,4.0,5.0,59,0.00,,,0.00,WeatherCatV1.10B1784,2013-05-19 17:38:00,
2013-05-19 13:43:00,66.5,51.7,30.24,SE,146,0.0,2.0,59,0.00,,,0.00,WeatherCatV1.10B1784,2013-05-19 17:43:00,
2013-05-19 13:48:00,66.5,52.2,30.23,SSE,160,2.0,2.0,60,0.00,,,0.00,WeatherCatV1.10B1784,2013-05-19 17:48:00,
2013-05-19 13:53:00,66.6,51.4,30.23,SSE,167,0.0,5.0,58,0.00,,,0.00,WeatherCatV1.10B1784,2013-05-19 17:53:00,
2013-05-19 13:58:00,66.6,51.8,30.23,SSE,155,1.0,7.0,59,0.00,,,0.00,WeatherCatV1.10B1784,2013-05-19 17:58:00,
2013-05-19 14:03:00,66.7,51.4,30.22,SW,222,0.0,4.0,58,0.00,,,0.00,WeatherCatV1.10B1784,2013-05-19 18:03:00,
2013-05-19 14:08:00,66.7,51.0,30.22,South,169,3.0,6.0,57,0.00,,,0.00,WeatherCatV1.10B1784,2013-05-19 18:08:00,
2013-05-19 14:13:00,66.8,51.1,30.22,SE,138,0.0,1.0,57,0.00,,,0.00,WeatherCatV1.10B1784,2013-05-19 18:13:00,
2013-05-19 14:18:00,66.8,51.5,30.22,South,186,1.0,2.0,58,0.00,,,0.00,WeatherCatV1.10B1784,2013-05-19 18:18:00,
2013-05-19 14:23:00,66.8,51.1,30.22,SE,140,1.0,6.0,57,0.00,,,0.00,WeatherCatV1.10B1784,2013-05-19 18:23:00,
2013-05-19 14:28:00,66.9,51.6,30.22,SSE,152,0.0,1.0,58,0.00,,,0.00,WeatherCatV1.10B1784,2013-05-19 18:28:00,
2013-05-19 14:33:00,66.8,50.6,30.22,SW,225,0.0,1.0,56,0.00,,,0.00,WeatherCatV1.10B1784,2013-05-19 18:33:00,
2013-05-19 14:38:00,66.9,50.2,30.22,SW,229,4.0,5.0,55,0.00,,,0.00,WeatherCatV1.10B1784,2013-05-19 18:38:00,
2013-05-19 14:43:00,66.7,50.0,30.22,WSW,246,2.0,4.0,55,0.00,,,0.00,WeatherCatV1.10B1784,2013-05-19 18:43:00,
2013-05-19 14:48:00,66.7,49.5,30.22,WSW,249,0.0,3.0,54,0.00,,,0.00,WeatherCatV1.10B1784,2013-05-19 18:48:00,
2013-05-19 14:53:00,67.0,50.3,30.22,ESE,116,0.0,3.0,55,0.00,,,0.00,WeatherCatV1.10B1784,2013-05-19 18:53:00,
2013-05-19 14:58:00,67.1,50.4,30.22,ESE,117,0.0,3.0,55,0.00,,,0.00,WeatherCatV1.10B1784,2013-05-19 18:58:00,
2013-05-19 15:03:00,67.2,51.0,30.22,West,274,0.0,2.0,56,0.00,,,0.00,WeatherCatV1.10B1784,2013-05-19 19:03:00,
2013-05-19 15:08:00,67.1,50.9,30.22,SW,219,2.0,4.0,56,0.00,,,0.00,WeatherCatV1.10B1784,2013-05-19 19:08:00,
2013-05-19 15:13:00,67.1,51.8,30.22,South,173,0.0,4.0,58,0.00,,,0.00,WeatherCatV1.10B1784,2013-05-19 19:13:00,
2013-05-19 15:18:00,66.7,51.4,30.21,SW,227,2.0,7.0,58,0.00,,,0.00,WeatherCatV1.10B1784,2013-05-19 19:18:00,
2013-05-19 15:23:00,66.2,51.0,30.21,SW,228,2.0,6.0,58,0.00,,,0.00,WeatherCatV1.10B1784,2013-05-19 19:23:00,
2013-05-19 15:28:00,65.9,50.7,30.21,SW,228,5.0,6.0,58,0.00,,,0.00,WeatherCatV1.10B1784,2013-05-19 19:28:00,
2013-05-19 15:33:00,66.0,51.3,30.21,South,181,0.0,1.0,59,0.00,,,0.00,WeatherCatV1.10B1784,2013-05-19 19:33:00,
2013-05-19 15:38:00,66.1,51.8,30.22,SE,146,1.0,5.0,60,0.00,,,0.00,WeatherCatV1.10B1784,2013-05-19 19:38:00,
2013-05-19 15:43:00,66.1,51.8,30.22,SW,225,0.0,4.0,60,0.00,,,0.00,WeatherCatV1.10B1784,2013-05-19 19:43:00,
2013-05-19 15:48:00,65.9,52.1,30.22,WSW,257,1.0,9.0,61,0.00,,,0.00,WeatherCatV1.10B1784,2013-05-19 19:48:00,
2013-05-19 15:53:00,65.5,51.7,30.22,SW,226,3.0,6.0,61,0.00,,,0.00,WeatherCatV1.10B1784,2013-05-19 19:53:00,
2013-05-19 15:58:00,64.7,51.8,30.22,WSW,248,2.0,9.0,63,0.00,,,0.00,WeatherCatV1.10B1784,2013-05-19 19:58:00,
2013-05-19 16:03:00,64.3,51.9,30.22,SW,225,1.0,7.0,64,0.00,,,0.00,WeatherCatV1.10B1784,2013-05-19 20:03:00,
2013-05-19 16:08:00,63.9,52.3,30.22,WSW,247,4.0,10.0,66,0.00,,,0.00,WeatherCatV1.10B1784,2013-05-19 20:08:00,
2013-05-19 16:13:00,63.6,53.6,30.22,WSW,247,6.0,6.0,70,0.00,,,0.00,WeatherCatV1.10B1784,2013-05-19 20:13:00,
2013-05-19 16:18:00,62.4,54.0,30.22,SW,233,1.0,13.0,74,0.00,,,0.00,WeatherCatV1.10B1784,2013-05-19 20:18:00,
2013-05-19 16:23:00,61.2,53.9,30.22,SW,233,0.0,10.0,77,0.00,,,0.00,WeatherCatV1.10B1784,2013-05-19 20:23:00,
2013-05-19 16:28:00,60.6,54.0,30.23,WSW,250,1.0,4.0,79,0.00,,,0.00,WeatherCatV1.10B1784,2013-05-19 20:28:00,
2013-05-19 16:33:00,60.3,54.1,30.23,SW,236,0.0,2.0,80,0.00,,,0.00,WeatherCatV1.10B1784,2013-05-19 20:33:00,
2013-05-19 16:38:00,60.1,54.2,30.23,SW,234,0.0,3.0,81,0.00,,,0.00,WeatherCatV1.10B1784,2013-05-19 20:38:00,
2013-05-19 16:43:00,59.9,54.4,30.23,WSW,237,3.0,3.0,82,0.00,,,0.00,WeatherCatV1.10B1784,2013-05-19 20:43:00,
2013-05-19 16:48:00,59.8,54.3,30.23,SW,236,2.0,5.0,82,0.00,,,0.00,WeatherCatV1.10B1784,2013-05-19 20:48:00,
2013-05-19 16:53:00,59.5,54.3,30.22,WSW,237,0.0,4.0,83,0.00,,,0.00,WeatherCatV1.10B1784,2013-05-19 20:53:00,
2013-05-19 16:58:00,59.3,54.5,30.22,WSW,246,5.0,5.0,84,0.00,,,0.00,WeatherCatV1.10B1784,2013-05-19 20:58:00,
2013-05-19 17:03:00,59.3,54.8,30.22,SW,233,0.0,0.0,85,0.00,,,0.00,WeatherCatV1.10B1784,2013-05-19 21:03:00,
2013-05-19 17:08:00,59.4,54.9,30.22,SW,233,0.0,0.0,85,0.00,,,0.00,WeatherCatV1.10B1784,2013-05-19 21:08:00,
2013-05-19 17:13:00,59.3,54.8,30.22,SW,233,0.0,0.0,85,0.00,,,0.00,WeatherCatV1.10B1784,2013-05-19 21:13:00,
2013-05-19 17:18:00,59.1,54.6,30.22,SW,235,0.0,5.0,85,0.00,,,0.00,WeatherCatV1.10B1784,2013-05-19 21:18:00,
2013-05-19 17:23:00,58.9,54.7,30.23,SW,235,0.0,1.0,86,0.00,,,0.00,WeatherCatV1.10B1784,2013-05-19 21:23:00,
2013-05-19 17:28:00,58.7,54.5,30.23,SW,235,0.0,0.0,86,0.00,,,0.00,WeatherCatV1.10B1784,2013-05-19 21:28:00,
2013-05-19 17:33:00,58.7,54.8,30.23,SW,235,0.0,0.0,87,0.00,,,0.00,WeatherCatV1.10B1784,2013-05-19 21:33:00,
2013-05-19 17:38:00,58.8,55.3,30.23,SW,234,0.0,3.0,88,0.00,,,0.00,WeatherCatV1.10B1784,2013-05-19 21:38:00,
2013-05-19 17:43:00,58.9,55.3,30.23,SW,234,0.0,2.0,88,0.00,,,0.01,WeatherCatV1.10B1784,2013-05-19 21:43:00,
2013-05-19 17:48:00,58.8,54.9,30.23,SW,234,1.0,1.0,87,0.00,,,0.01,WeatherCatV1.10B1784,2013-05-19 21:48:00,
2013-05-19 17:53:00,58.7,55.2,30.22,SW,234,0.0,1.0,88,0.00,,,0.01,WeatherCatV1.10B1784,2013-05-19 21:53:00,
2013-05-19 17:58:00,58.6,55.1,30.23,SW,234,0.0,0.0,88,0.00,,,0.01,WeatherCatV1.10B1784,2013-05-19 21:58:00,
2013-05-19 18:03:00,58.5,55.0,30.23,SW,234,0.0,0.0,88,0.00,,,0.01,WeatherCatV1.10B1784,2013-05-19 22:03:00,
2013-05-19 18:08:00,58.4,54.5,30.23,SW,234,1.0,3.0,87,0.00,,,0.01,WeatherCatV1.10B1784,2013-05-19 22:08:00,
2013-05-19 18:13:00,58.2,54.7,30.23,SE,142,2.0,3.0,88,0.00,,,0.01,WeatherCatV1.10B1784,2013-05-19 22:13:00,
2013-05-19 18:18:00,58.0,54.5,30.23,West,273,0.0,3.0,88,0.00,,,0.02,WeatherCatV1.10B1784,2013-05-19 22:18:00,
2013-05-19 18:23:00,57.9,54.4,30.23,SE,127,5.0,5.0,88,0.00,,,0.02,WeatherCatV1.10B1784,2013-05-19 22:23:00,
2013-05-19 18:28:00,57.7,54.2,30.23,SSE,163,0.0,2.0,88,0.00,,,0.02,WeatherCatV1.10B1784,2013-05-19 22:28:00,
2013-05-19 18:33:00,57.4,53.9,30.23,WSW,257,0.0,5.0,88,0.00,,,0.02,WeatherCatV1.10B1784,2013-05-19 22:33:00,
2013-05-19 18:38:00,57.1,53.6,30.23,South,170,0.0,5.0,88,0.00,,,0.02,WeatherCatV1.10B1784,2013-05-19 22:38:00,
2013-05-19 18:43:00,57.0,53.5,30.23,SSE,147,0.0,0.0,88,0.00,,,0.02,WeatherCatV1.10B1784,2013-05-19 22:43:00,
2013-05-19 18:48:00,56.9,53.7,30.22,SSE,148,0.0,0.0,89,0.00,,,0.02,WeatherCatV1.10B1784,2013-05-19 22:48:00,
2013-05-19 18:53:00,56.8,53.6,30.22,WSW,240,2.0,2.0,89,0.00,,,0.02,WeatherCatV1.10B1784,2013-05-19 22:53:00,
2013-05-19 18:58:00,56.6,53.4,30.22,WSW,244,0.0,4.0,89,0.00,,,0.02,WeatherCatV1.10B1784,2013-05-19 22:58:00,
2013-05-19 19:03:00,56.4,53.5,30.23,WSW,243,0.0,0.0,90,0.00,,,0.02,WeatherCatV1.10B1784,2013-05-19 23:03:00,
2013-05-19 19:08:00,56.4,53.5,30.22,WSW,243,0.0,2.0,90,0.00,,,0.02,WeatherCatV1.10B1784,2013-05-19 23:08:00,
2013-05-19 19:13:00,56.3,53.4,30.22,WSW,242,0.0,0.0,90,0.00,,,0.02,WeatherCatV1.10B1784,2013-05-19 23:13:00,
2013-05-19 19:18:00,56.2,53.3,30.22,WSW,242,0.0,1.0,90,0.00,,,0.02,WeatherCatV1.10B1784,2013-05-19 23:18:00,
2013-05-19 19:23:00,56.2,53.3,30.22,WSW,242,0.0,0.0,90,0.00,,,0.02,WeatherCatV1.10B1784,2013-05-19 23:23:00,
2013-05-19 19:28:00,56.0,53.1,30.22,South,185,0.0,1.0,90,0.00,,,0.02,WeatherCatV1.10B1784,2013-05-19 23:28:00,
2013-05-19 19:33:00,56.0,53.1,30.23,SSE,164,4.0,4.0,90,0.00,,,0.02,WeatherCatV1.10B1784,2013-05-19 23:33:00,
2013-05-19 19:38:00,55.8,52.9,30.22,SSE,163,0.0,2.0,90,0.00,,,0.02,WeatherCatV1.10B1784,2013-05-19 23:38:00,
2013-05-19 19:43:00,55.7,52.8,30.22,SSE,163,0.0,0.0,90,0.00,,,0.02,WeatherCatV1.10B1784,2013-05-19 23:43:00,
2013-05-19 19:48:00,55.6,52.7,30.22,SSE,154,0.0,4.0,90,0.00,,,0.02,WeatherCatV1.10B1784,2013-05-19 23:48:00,
2013-05-19 19:53:00,55.5,52.9,30.22,SSE,158,0.0,0.0,91,0.00,,,0.02,WeatherCatV1.10B1784,2013-05-19 23:53:00,
2013-05-19 19:58:00,55.4,52.8,30.22,SSE,158,0.0,0.0,91,0.00,,,0.02,WeatherCatV1.10B1784,2013-05-19 23:58:00,
2013-05-19 20:03:00,55.2,52.6,30.22,SSE,158,0.0,0.0,91,0.00,,,0.02,WeatherCatV1.10B1784,2013-05-20 00:03:00,
2013-05-19 20:09:00,55.1,52.5,30.22,SSE,158,0.0,0.0,91,0.00,,,0.02,WeatherCatV1.10B1784,2013-05-20 00:09:00,
2013-05-19 20:14:00,55.0,52.4,30.22,SSE,158,0.0,3.0,91,0.00,,,0.02,WeatherCatV1.10B1784,2013-05-20 00:14:00,
2013-05-19 20:19:00,54.9,52.3,30.22,SSE,157,0.0,2.0,91,0.00,,,0.02,WeatherCatV1.10B1784,2013-05-20 00:19:00,
2013-05-19 20:24:00,54.8,52.2,30.22,SSE,165,0.0,2.0,91,0.00,,,0.02,WeatherCatV1.10B1784,2013-05-20 00:24:00,
2013-05-19 20:29:00,54.7,52.4,30.22,SSE,165,0.0,3.0,92,0.00,,,0.02,WeatherCatV1.10B1784,2013-05-20 00:29:00,
2013-05-19 20:34:00,54.7,52.4,30.21,SSE,163,4.0,4.0,92,0.00,,,0.02,WeatherCatV1.10B1784,2013-05-20 00:34:00,
2013-05-19 20:39:00,54.6,52.3,30.21,SSE,163,0.0,1.0,92,0.00,,,0.03,WeatherCatV1.10B1784,2013-05-20 00:39:00,
2013-05-19 20:44:00,54.6,52.3,30.21,SSE,161,1.0,2.0,92,0.00,,,0.03,WeatherCatV1.10B1784,2013-05-20 00:44:00,
2013-05-19 20:49:00,54.6,52.3,30.21,SSE,161,0.0,0.0,92,0.00,,,0.03,WeatherCatV1.10B1784,2013-05-20 00:49:00,
2013-05-19 20:54:00,54.6,52.6,30.21,SSE,161,0.0,0.0,93,0.00,,,0.03,WeatherCatV1.10B1784,2013-05-20 00:54:00,
2013-05-19 20:59:00,54.6,52.6,30.21,SSE,161,0.0,0.0,93,0.00,,,0.04,WeatherCatV1.10B1784,2013-05-20 00:59:00,
2013-05-19 21:04:00,54.6,52.6,30.21,SSE,161,0.0,0.0,93,0.00,,,0.04,WeatherCatV1.10B1784,2013-05-20 01:04:00,
2013-05-19 21:09:00,54.6,52.6,30.21,SSE,161,0.0,0.0,93,0.00,,,0.04,WeatherCatV1.10B1784,2013-05-20 01:09:00,
2013-05-19 21:14:00,54.7,52.7,30.21,SSE,161,0.0,3.0,93,0.00,,,0.04,WeatherCatV1.10B1784,2013-05-20 01:14:00,
2013-05-19 21:19:00,54.7,52.7,30.21,SSE,161,3.0,4.0,93,0.00,,,0.04,WeatherCatV1.10B1784,2013-05-20 01:19:00,
2013-05-19 21:24:00,54.7,52.7,30.21,SSE,161,1.0,5.0,93,0.00,,,0.04,WeatherCatV1.10B1784,2013-05-20 01:24:00,
2013-05-19 21:29:00,54.7,52.7,30.21,SSE,157,0.0,2.0,93,0.00,,,0.04,WeatherCatV1.10B1784,2013-05-20 01:29:00,
2013-05-19 21:34:00,54.8,52.8,30.21,SSE,165,0.0,5.0,93,0.00,,,0.04,WeatherCatV1.10B1784,2013-05-20 01:34:00,
2013-05-19 21:39:00,54.8,53.1,30.20,SE,139,5.0,6.0,94,0.00,,,0.04,WeatherCatV1.10B1784,2013-05-20 01:39:00,
2013-05-19 21:44:00,54.8,53.1,30.20,SE,144,2.0,6.0,94,0.00,,,0.04,WeatherCatV1.10B1784,2013-05-20 01:44:00,
2013-05-19 21:49:00,54.8,53.1,30.20,SSE,156,2.0,7.0,94,0.00,,,0.04,WeatherCatV1.10B1784,2013-05-20 01:49:00,
2013-05-19 21:54:00,54.8,53.1,30.20,SSE,158,0.0,3.0,94,0.00,,,0.04,WeatherCatV1.10B1784,2013-05-20 01:54:00,
2013-05-19 21:59:00,54.8,53.1,30.20,SSW,196,4.0,7.0,94,0.00,,,0.04,WeatherCatV1.10B1784,2013-05-20 01:59:00,
2013-05-19 22:04:00,54.8,53.1,30.19,SSE,148,0.0,6.0,94,0.00,,,0.04,WeatherCatV1.10B1784,2013-05-20 02:04:00,
2013-05-19 22:09:00,54.8,53.1,30.19,SE,144,5.0,5.0,94,0.00,,,0.04,WeatherCatV1.10B1784,2013-05-20 02:09:00,
2013-05-19 22:14:00,54.9,53.2,30.19,SE,139,5.0,7.0,94,0.00,,,0.04,WeatherCatV1.10B1784,2013-05-20 02:14:00,
2013-05-19 22:19:00,54.9,53.2,30.19,SE,137,4.0,9.0,94,0.00,,,0.04,WeatherCatV1.10B1784,2013-05-20 02:19:00,
2013-05-19 22:24:00,54.9,53.2,30.19,SE,143,0.0,3.0,94,0.00,,,0.04,WeatherCatV1.10B1784,2013-05-20 02:24:00,
2013-05-19 22:29:00,54.9,53.2,30.19,WSW,239,3.0,7.0,94,0.00,,,0.04,WeatherCatV1.10B1784,2013-05-20 02:29:00,
2013-05-19 22:34:00,54.9,53.2,30.19,SE,142,4.0,5.0,94,0.00,,,0.04,WeatherCatV1.10B1784,2013-05-20 02:34:00,
2013-05-19 22:39:00,54.9,53.2,30.19,SSE,150,0.0,2.0,94,0.00,,,0.04,WeatherCatV1.10B1784,2013-05-20 02:39:00,
2013-05-19 22:44:00,54.9,53.2,30.19,SSE,148,0.0,5.0,94,0.00,,,0.04,WeatherCatV1.10B1784,2013-05-20 02:44:00,
2013-05-19 22:49:00,55.0,53.3,30.18,SSE,151,0.0,1.0,94,0.00,,,0.04,WeatherCatV1.10B1784,2013-05-20 02:49:00,
2013-05-19 22:54:00,55.0,53.3,30.18,SE,144,0.0,3.0,94,0.00,,,0.04,WeatherCatV1.10B1784,2013-05-20 02:54:00,
2013-05-19 22:59:00,55.0,53.3,30.18,SE,145,4.0,5.0,94,0.00,,,0.04,WeatherCatV1.10B1784,2013-05-20 02:59:00,
2013-05-19 23:04:00,55.0,53.3,30.18,SE,142,0.0,5.0,94,0.00,,,0.04,WeatherCatV1.10B1784,2013-05-20 03:04:00,
2013-05-19 23:09:00,55.0,53.3,30.18,SE,132,0.0,0.0,94,0.00,,,0.04,WeatherCatV1.10B1784,2013-05-20 03:09:00,
2013-05-19 23:14:00,55.0,53.3,30.18,SE,146,2.0,4.0,94,0.00,,,0.04,WeatherCatV1.10B1784,2013-05-20 03:14:00,
2013-05-19 23:19:00,55.0,53.3,30.17,SSE,157,0.0,4.0,94,0.00,,,0.05,WeatherCatV1.10B1784,2013-05-20 03:19:00,
2013-05-19 23:24:00,55.0,53.3,30.17,SSE,157,0.0,2.0,94,0.00,,,0.05,WeatherCatV1.10B1784,2013-05-20 03:24:00,
2013-05-19 23:29:00,55.1,53.4,30.17,SSE,157,0.0,1.0,94,0.00,,,0.05,WeatherCatV1.10B1784,2013-05-20 03:29:00,
2013-05-19 23:34:00,55.1,53.4,30.17,SSE,157,2.0,3.0,94,0.00,,,0.05,WeatherCatV1.10B1784,2013-05-20 03:34:00,
2013-05-19 23:39:00,55.1,53.4,30.17,SE,138,0.0,3.0,94,0.00,,,0.05,WeatherCatV1.10B1784,2013-05-20 03:39:00,
2013-05-19 23:44:00,55.0,53.3,30.17,SE,145,0.0,4.0,94,0.00,,,0.05,WeatherCatV1.10B1784,2013-05-20 03:44:00,
2013-05-19 23:49:00,55.1,53.7,30.17,SSE,157,0.0,0.0,95,0.00,,,0.05,WeatherCatV1.10B1784,2013-05-20 03:49:00,
2013-05-19 23:54:00,55.1,53.7,30.17,SSE,157,0.0,0.0,95,0.00,,,0.06,WeatherCatV1.10B1784,2013-05-20 03:54:00,
2013-05-19 23:59:00,55.1,53.7,30.16,SSE,157,0.0,1.0,95,0.00,,,0.06,WeatherCatV1.10B1784,2013-05-20 03:59:00,